Time,TemperatureF,DewpointF,PressureIn,WindDirection,WindDirectionDegrees,WindSpeedMPH,WindSpeedGustMPH,Humidity,HourlyPrecipIn,Conditions,Clouds,dailyrainin,SoftwareType,DateUTC
2013-03-05 00:02:00,44.8,41.7,30.14,WNW,302,0.0,0.0,89,0.00,,,0.00,meteohub,2013-03-05 05:02:00,
2013-03-05 00:05:00,44.6,41.5,30.14,WNW,302,0.0,0.0,89,0.00,,,0.00,meteohub,2013-03-05 05:05:00,
2013-03-05 00:07:00,44.6,41.5,30.14,WNW,302,0.0,0.0,89,0.00,,,0.00,meteohub,2013-03-05 05:07:00,
2013-03-05 00:12:00,44.8,41.7,30.13,WNW,302,0.0,0.0,89,0.00,,,0.00,meteohub,2013-03-05 05:12:00,
2013-03-05 00:17:00,44.8,41.7,30.13,WNW,302,0.0,1.0,89,0.00,,,0.00,meteohub,2013-03-05 05:17:00,
2013-03-05 00:22:00,44.8,41.7,30.13,WNW,302,0.0,1.0,89,0.00,,,0.00,meteohub,2013-03-05 05:22:00,
2013-03-05 00:27:00,45.0,41.9,30.13,WNW,302,0.0,1.0,89,0.00,,,0.00,meteohub,2013-03-05 05:27:00,
2013-03-05 00:32:00,45.1,42.1,30.12,WNW,302,0.0,1.0,89,0.00,,,0.00,meteohub,2013-03-05 05:32:00,
2013-03-05 00:37:00,45.3,42.3,30.12,WNW,302,0.0,2.0,89,0.00,,,0.00,meteohub,2013-03-05 05:37:00,
2013-03-05 00:42:00,45.5,42.1,30.12,WNW,302,0.0,2.0,88,0.00,,,0.00,meteohub,2013-03-05 05:42:00,
2013-03-05 00:47:00,45.5,42.1,30.12,WNW,302,0.0,2.0,88,0.00,,,0.00,meteohub,2013-03-05 05:47:00,
2013-03-05 00:52:00,45.7,42.3,30.12,WNW,302,0.0,1.0,88,0.00,,,0.00,meteohub,2013-03-05 05:52:00,
2013-03-05 00:57:00,45.7,42.1,30.12,WNW,302,0.0,1.0,87,0.00,,,0.00,meteohub,2013-03-05 05:57:00,
2013-03-05 01:02:00,45.5,42.1,30.12,WNW,302,1.0,2.0,88,0.00,,,0.00,meteohub,2013-03-05 06:02:00,
2013-03-05 01:07:00,45.3,41.9,30.13,WNW,302,0.0,2.0,88,0.00,,,0.00,meteohub,2013-03-05 06:07:00,
2013-03-05 01:12:00,45.1,41.7,30.13,WNW,302,0.0,2.0,88,0.00,,,0.00,meteohub,2013-03-05 06:12:00,
2013-03-05 01:17:00,45.0,41.5,30.13,WNW,302,0.0,2.0,88,0.00,,,0.00,meteohub,2013-03-05 06:17:00,
2013-03-05 01:22:00,44.8,41.4,30.13,WNW,302,0.0,0.0,88,0.00,,,0.00,meteohub,2013-03-05 06:22:00,
2013-03-05 01:27:00,44.6,41.5,30.13,WNW,302,0.0,1.0,89,0.00,,,0.00,meteohub,2013-03-05 06:27:00,
2013-03-05 01:32:00,44.4,41.4,30.12,WNW,302,0.0,1.0,89,0.00,,,0.00,meteohub,2013-03-05 06:32:00,
2013-03-05 01:37:00,44.4,41.4,30.12,WNW,302,0.0,0.0,89,0.00,,,0.00,meteohub,2013-03-05 06:37:00,
2013-03-05 01:42:00,44.2,41.5,30.12,WNW,302,0.0,0.0,90,0.00,,,0.00,meteohub,2013-03-05 06:42:00,
2013-03-05 01:47:00,44.2,41.5,30.12,WNW,302,0.0,1.0,90,0.00,,,0.00,meteohub,2013-03-05 06:47:00,
2013-03-05 01:52:00,44.1,41.4,30.12,WNW,302,0.0,1.0,90,0.00,,,0.00,meteohub,2013-03-05 06:52:00,
2013-03-05 01:57:00,43.9,41.2,30.12,WNW,302,0.0,2.0,90,0.00,,,0.00,meteohub,2013-03-05 06:57:00,
2013-03-05 02:02:00,43.9,41.4,30.12,WNW,302,0.0,2.0,91,0.00,,,0.00,meteohub,2013-03-05 07:02:00,
2013-03-05 02:07:00,43.9,41.4,30.12,WNW,302,0.0,1.0,91,0.00,,,0.00,meteohub,2013-03-05 07:07:00,
2013-03-05 02:12:00,43.9,41.4,30.12,WNW,302,0.0,0.0,91,0.00,,,0.00,meteohub,2013-03-05 07:12:00,
2013-03-05 02:17:00,43.9,41.7,30.12,WNW,302,0.0,1.0,92,0.00,,,0.00,meteohub,2013-03-05 07:17:00,
2013-03-05 02:22:00,43.7,41.5,30.12,WNW,302,0.0,1.0,92,0.00,,,0.00,meteohub,2013-03-05 07:22:00,
2013-03-05 02:27:00,43.7,41.5,30.13,WNW,302,0.0,1.0,92,0.00,,,0.00,meteohub,2013-03-05 07:27:00,
2013-03-05 02:32:00,43.7,41.5,30.12,WNW,302,0.0,1.0,92,0.00,,,0.00,meteohub,2013-03-05 07:32:00,
2013-03-05 02:37:00,43.5,41.4,30.12,WNW,302,0.0,1.0,92,0.00,,,0.00,meteohub,2013-03-05 07:37:00,
2013-03-05 02:42:00,43.3,41.2,30.12,WNW,302,0.0,1.0,92,0.00,,,0.00,meteohub,2013-03-05 07:42:00,
2013-03-05 02:47:00,43.3,41.2,30.12,WNW,302,0.0,0.0,92,0.00,,,0.00,meteohub,2013-03-05 07:47:00,
2013-03-05 02:52:00,43.3,41.2,30.12,WNW,302,0.0,0.0,92,0.00,,,0.00,meteohub,2013-03-05 07:52:00,
2013-03-05 02:57:00,43.2,41.0,30.12,WNW,302,0.0,0.0,92,0.00,,,0.00,meteohub,2013-03-05 07:57:00,
2013-03-05 03:02:00,43.2,41.0,30.12,WNW,302,0.0,0.0,92,0.00,,,0.00,meteohub,2013-03-05 08:02:00,
2013-03-05 03:07:00,43.2,41.0,30.12,WNW,302,0.0,0.0,92,0.00,,,0.00,meteohub,2013-03-05 08:07:00,
2013-03-05 03:12:00,43.0,40.8,30.12,WNW,302,0.0,0.0,92,0.00,,,0.00,meteohub,2013-03-05 08:12:00,
2013-03-05 03:17:00,42.8,40.6,30.12,WNW,302,0.0,1.0,92,0.00,,,0.00,meteohub,2013-03-05 08:17:00,
2013-03-05 03:22:00,42.6,40.5,30.12,WNW,302,0.0,1.0,92,0.00,,,0.00,meteohub,2013-03-05 08:22:00,
2013-03-05 03:27:00,42.6,40.5,30.11,WNW,302,0.0,1.0,92,0.00,,,0.00,meteohub,2013-03-05 08:27:00,
2013-03-05 03:32:00,42.4,40.3,30.11,WNW,302,0.0,0.0,92,0.00,,,0.00,meteohub,2013-03-05 08:32:00,
2013-03-05 03:37:00,42.4,40.6,30.11,WNW,302,0.0,0.0,93,0.00,,,0.00,meteohub,2013-03-05 08:37:00,
2013-03-05 03:42:00,42.4,40.6,30.11,WNW,302,0.0,0.0,93,0.00,,,0.00,meteohub,2013-03-05 08:42:00,
2013-03-05 03:47:00,42.4,40.6,30.11,WNW,302,0.0,0.0,93,0.00,,,0.00,meteohub,2013-03-05 08:47:00,
2013-03-05 03:52:00,42.4,40.6,30.11,WNW,302,0.0,0.0,93,0.00,,,0.00,meteohub,2013-03-05 08:52:00,
2013-03-05 03:57:00,42.4,40.6,30.12,WNW,302,0.0,0.0,93,0.00,,,0.00,meteohub,2013-03-05 08:57:00,
2013-03-05 04:02:00,42.3,40.5,30.11,WNW,302,0.0,0.0,93,0.00,,,0.00,meteohub,2013-03-05 09:02:00,
2013-03-05 04:07:00,42.3,40.5,30.11,WNW,302,0.0,0.0,93,0.00,,,0.00,meteohub,2013-03-05 09:07:00,
2013-03-05 04:12:00,42.1,40.3,30.11,WNW,302,0.0,0.0,93,0.00,,,0.00,meteohub,2013-03-05 09:12:00,
2013-03-05 04:17:00,42.3,40.5,30.11,WNW,302,0.0,0.0,93,0.00,,,0.00,meteohub,2013-03-05 09:17:00,
2013-03-05 04:22:00,42.3,40.5,30.11,WNW,302,0.0,0.0,93,0.00,,,0.00,meteohub,2013-03-05 09:22:00,
2013-03-05 04:27:00,42.3,40.5,30.11,WNW,302,0.0,0.0,93,0.00,,,0.00,meteohub,2013-03-05 09:27:00,
2013-03-05 04:32:00,42.3,40.5,30.11,WNW,302,0.0,0.0,93,0.00,,,0.00,meteohub,2013-03-05 09:32:00,
2013-03-05 04:37:00,42.3,40.5,30.11,WNW,302,0.0,0.0,93,0.00,,,0.00,meteohub,2013-03-05 09:37:00,
2013-03-05 04:42:00,42.3,40.5,30.11,WNW,302,0.0,0.0,93,0.00,,,0.00,meteohub,2013-03-05 09:42:00,
2013-03-05 04:47:00,42.1,40.3,30.11,WNW,302,0.0,0.0,93,0.00,,,0.00,meteohub,2013-03-05 09:47:00,
2013-03-05 04:52:00,42.1,40.3,30.11,WNW,302,0.0,0.0,93,0.00,,,0.00,meteohub,2013-03-05 09:52:00,
2013-03-05 04:57:00,42.1,40.5,30.11,WNW,302,0.0,0.0,94,0.00,,,0.00,meteohub,2013-03-05 09:57:00,
2013-03-05 05:02:00,42.1,40.3,30.11,WNW,302,0.0,0.0,93,0.00,,,0.00,meteohub,2013-03-05 10:02:00,
2013-03-05 05:07:00,42.1,40.5,30.11,WNW,302,0.0,0.0,94,0.00,,,0.00,meteohub,2013-03-05 10:07:00,
2013-03-05 05:12:00,42.3,40.6,30.11,WNW,302,0.0,0.0,94,0.00,,,0.00,meteohub,2013-03-05 10:12:00,
2013-03-05 05:17:00,42.4,40.8,30.11,WNW,302,0.0,0.0,94,0.00,,,0.00,meteohub,2013-03-05 10:17:00,
2013-03-05 05:22:00,42.6,41.0,30.12,WNW,302,0.0,0.0,94,0.00,,,0.00,meteohub,2013-03-05 10:22:00,
2013-03-05 05:27:00,43.0,41.4,30.12,WNW,302,0.0,0.0,94,0.00,,,0.00,meteohub,2013-03-05 10:27:00,
2013-03-05 05:32:00,43.3,41.7,30.12,WNW,302,0.0,1.0,94,0.00,,,0.00,meteohub,2013-03-05 10:32:00,
2013-03-05 05:37:00,43.3,41.7,30.12,WNW,302,0.0,1.0,94,0.00,,,0.00,meteohub,2013-03-05 10:37:00,
2013-03-05 05:42:00,43.5,41.9,30.12,WNW,302,0.0,1.0,94,0.00,,,0.00,meteohub,2013-03-05 10:42:00,
2013-03-05 05:47:00,43.5,41.9,30.12,WNW,302,0.0,1.0,94,0.00,,,0.00,meteohub,2013-03-05 10:47:00,
2013-03-05 05:52:00,43.9,41.9,30.12,WNW,302,0.0,1.0,93,0.00,,,0.00,meteohub,2013-03-05 10:52:00,
2013-03-05 05:57:00,43.7,41.7,30.13,WNW,302,0.0,1.0,93,0.00,,,0.00,meteohub,2013-03-05 10:57:00,
2013-03-05 06:02:00,43.5,41.7,30.13,WNW,302,0.0,1.0,93,0.00,,,0.00,meteohub,2013-03-05 11:02:00,
2013-03-05 06:07:00,43.3,41.5,30.13,WNW,302,0.0,0.0,93,0.00,,,0.00,meteohub,2013-03-05 11:07:00,
2013-03-05 06:12:00,43.3,41.5,30.13,WNW,302,0.0,0.0,93,0.00,,,0.00,meteohub,2013-03-05 11:12:00,
2013-03-05 06:17:00,43.3,41.5,30.13,WNW,302,0.0,0.0,93,0.00,,,0.00,meteohub,2013-03-05 11:17:00,
2013-03-05 06:22:00,43.3,41.5,30.13,WNW,302,0.0,0.0,93,0.00,,,0.00,meteohub,2013-03-05 11:22:00,
2013-03-05 06:27:00,43.2,41.4,30.14,WNW,302,0.0,0.0,93,0.00,,,0.00,meteohub,2013-03-05 11:27:00,
2013-03-05 06:32:00,43.2,41.4,30.14,WNW,302,0.0,0.0,93,0.00,,,0.00,meteohub,2013-03-05 11:32:00,
2013-03-05 06:37:00,43.2,41.4,30.14,WNW,302,0.0,0.0,93,0.00,,,0.00,meteohub,2013-03-05 11:37:00,
2013-03-05 06:42:00,43.2,41.4,30.14,WNW,302,0.0,0.0,93,0.00,,,0.00,meteohub,2013-03-05 11:42:00,
2013-03-05 06:47:00,43.2,41.4,30.14,WNW,302,0.0,0.0,93,0.00,,,0.00,meteohub,2013-03-05 11:47:00,
2013-03-05 06:52:00,43.0,41.2,30.14,WNW,302,0.0,0.0,93,0.00,,,0.00,meteohub,2013-03-05 11:52:00,
2013-03-05 06:57:00,43.0,41.4,30.15,WNW,302,0.0,0.0,94,0.00,,,0.00,meteohub,2013-03-05 11:57:00,
2013-03-05 07:02:00,43.0,41.4,30.15,WNW,302,0.0,0.0,94,0.00,,,0.00,meteohub,2013-03-05 12:02:00,
2013-03-05 07:07:00,43.2,41.5,30.14,WNW,302,0.0,0.0,94,0.00,,,0.00,meteohub,2013-03-05 12:07:00,
2013-03-05 07:12:00,43.2,41.5,30.15,WNW,302,0.0,0.0,94,0.00,,,0.00,meteohub,2013-03-05 12:12:00,
2013-03-05 07:17:00,43.3,41.7,30.15,WNW,302,0.0,0.0,94,0.00,,,0.00,meteohub,2013-03-05 12:17:00,
2013-03-05 07:22:00,43.3,41.7,30.15,WNW,302,0.0,0.0,94,0.00,,,0.00,meteohub,2013-03-05 12:22:00,
2013-03-05 07:27:00,43.9,42.6,30.15,WNW,302,0.0,0.0,95,0.00,,,0.00,meteohub,2013-03-05 12:27:00,
2013-03-05 07:32:00,44.2,43.0,30.15,WNW,302,0.0,0.0,95,0.00,,,0.00,meteohub,2013-03-05 12:32:00,
2013-03-05 07:37:00,44.6,43.3,30.15,WNW,302,0.0,0.0,95,0.00,,,0.00,meteohub,2013-03-05 12:37:00,
2013-03-05 07:42:00,45.1,43.9,30.15,WNW,302,0.0,1.0,95,0.00,,,0.00,meteohub,2013-03-05 12:42:00,
2013-03-05 07:47:00,45.7,44.4,30.15,WNW,302,0.0,1.0,95,0.00,,,0.00,meteohub,2013-03-05 12:47:00,
2013-03-05 07:52:00,46.4,45.0,30.15,WNW,302,0.0,1.0,95,0.00,,,0.00,meteohub,2013-03-05 12:52:00,
2013-03-05 07:57:00,47.1,45.7,30.15,WNW,302,1.0,1.0,95,0.00,,,0.00,meteohub,2013-03-05 12:57:00,
2013-03-05 08:02:00,48.0,46.4,30.15,South,178,1.0,1.0,94,0.00,,,0.00,meteohub,2013-03-05 13:02:00,
2013-03-05 08:07:00,49.3,47.1,30.15,SW,229,0.0,3.0,92,0.00,,,0.00,meteohub,2013-03-05 13:07:00,
2013-03-05 08:12:00,50.4,47.3,30.15,SSW,202,2.0,4.0,89,0.00,,,0.00,meteohub,2013-03-05 13:12:00,
2013-03-05 08:17:00,51.4,47.7,30.16,SSW,213,0.0,4.0,87,0.00,,,0.00,meteohub,2013-03-05 13:17:00,
2013-03-05 08:22:00,52.5,47.8,30.15,SSE,166,0.0,4.0,84,0.00,,,0.00,meteohub,2013-03-05 13:22:00,
2013-03-05 08:27:00,53.4,48.4,30.15,South,171,0.0,5.0,83,0.00,,,0.00,meteohub,2013-03-05 13:27:00,
2013-03-05 08:32:00,54.5,48.4,30.16,SSE,148,1.0,5.0,80,0.00,,,0.00,meteohub,2013-03-05 13:32:00,
2013-03-05 08:37:00,55.4,48.7,30.16,SSE,148,1.0,5.0,78,0.00,,,0.00,meteohub,2013-03-05 13:37:00,
2013-03-05 08:42:00,56.3,48.6,30.16,SE,142,1.0,3.0,75,0.00,,,0.00,meteohub,2013-03-05 13:42:00,
2013-03-05 08:47:00,56.8,48.9,30.16,South,181,2.0,5.0,75,0.00,,,0.00,meteohub,2013-03-05 13:47:00,
2013-03-05 08:52:00,57.4,49.1,30.16,SSE,167,2.0,5.0,74,0.00,,,0.00,meteohub,2013-03-05 13:52:00,
2013-03-05 08:57:00,58.1,49.5,30.16,SSW,210,0.0,4.0,73,0.00,,,0.00,meteohub,2013-03-05 13:57:00,
2013-03-05 09:02:00,58.8,49.5,30.16,SW,221,2.0,4.0,71,0.00,,,0.00,meteohub,2013-03-05 14:02:00,
2013-03-05 09:07:00,58.8,49.8,30.16,SE,130,3.0,5.0,72,0.00,,,0.00,meteohub,2013-03-05 14:07:00,
2013-03-05 09:12:00,59.2,50.2,30.16,SW,221,3.0,5.0,72,0.00,,,0.00,meteohub,2013-03-05 14:12:00,
2013-03-05 09:17:00,59.5,50.9,30.16,ESE,117,2.0,6.0,73,0.00,,,0.00,meteohub,2013-03-05 14:17:00,
2013-03-05 09:22:00,60.4,51.1,30.16,East,97,3.0,6.0,71,0.00,,,0.00,meteohub,2013-03-05 14:22:00,
2013-03-05 09:27:00,61.2,51.3,30.16,SE,137,0.0,6.0,70,0.00,,,0.00,meteohub,2013-03-05 14:27:00,
2013-03-05 09:32:00,61.5,51.3,30.17,SE,138,2.0,5.0,69,0.00,,,0.00,meteohub,2013-03-05 14:32:00,
2013-03-05 09:37:00,62.1,52.2,30.17,ENE,59,2.0,5.0,70,0.00,,,0.00,meteohub,2013-03-05 14:37:00,
2013-03-05 09:42:00,62.1,51.8,30.17,East,101,2.0,5.0,69,0.00,,,0.00,meteohub,2013-03-05 14:42:00,
2013-03-05 09:47:00,62.2,52.0,30.16,WSW,257,0.0,5.0,69,0.00,,,0.00,meteohub,2013-03-05 14:47:00,
2013-03-05 09:52:00,62.6,52.3,30.17,ESE,120,2.0,5.0,69,0.00,,,0.00,meteohub,2013-03-05 14:52:00,
2013-03-05 09:57:00,62.8,52.0,30.16,East,86,1.0,5.0,68,0.00,,,0.00,meteohub,2013-03-05 14:57:00,
2013-03-05 10:02:00,63.1,52.9,30.16,SSE,156,2.0,5.0,69,0.00,,,0.00,meteohub,2013-03-05 15:02:00,
2013-03-05 10:07:00,63.7,53.8,30.16,ESE,123,3.0,5.0,70,0.00,,,0.00,meteohub,2013-03-05 15:07:00,
2013-03-05 10:12:00,64.2,53.4,30.16,South,173,1.0,5.0,68,0.00,,,0.00,meteohub,2013-03-05 15:12:00,
2013-03-05 10:17:00,64.8,53.6,30.16,SSE,156,0.0,5.0,67,0.00,,,0.00,meteohub,2013-03-05 15:17:00,
2013-03-05 10:22:00,64.8,54.0,30.15,SE,131,3.0,5.0,68,0.00,,,0.00,meteohub,2013-03-05 15:22:00,
2013-03-05 10:27:00,64.8,53.6,30.16,SW,225,1.0,5.0,67,0.00,,,0.00,meteohub,2013-03-05 15:27:00,
2013-03-05 10:32:00,64.6,53.8,30.16,SW,214,1.0,7.0,68,0.00,,,0.00,meteohub,2013-03-05 15:32:00,
2013-03-05 10:37:00,64.8,54.3,30.16,South,182,2.0,7.0,69,0.00,,,0.00,meteohub,2013-03-05 15:37:00,
2013-03-05 10:42:00,64.8,54.0,30.16,SSE,148,1.0,6.0,68,0.00,,,0.00,meteohub,2013-03-05 15:42:00,
2013-03-05 10:47:00,64.8,54.7,30.16,South,180,3.0,6.0,70,0.00,,,0.00,meteohub,2013-03-05 15:47:00,
2013-03-05 10:52:00,64.6,54.5,30.15,West,277,2.0,6.0,70,0.00,,,0.00,meteohub,2013-03-05 15:52:00,
2013-03-05 10:57:00,64.9,55.4,30.15,East,89,5.0,6.0,71,0.00,,,0.00,meteohub,2013-03-05 15:57:00,
2013-03-05 11:02:00,66.0,55.9,30.15,WNW,301,0.0,7.0,70,0.00,,,0.00,meteohub,2013-03-05 16:02:00,
2013-03-05 11:07:00,66.4,55.6,30.15,WNW,299,2.0,7.0,68,0.00,,,0.00,meteohub,2013-03-05 16:07:00,
2013-03-05 11:12:00,66.7,56.7,30.15,SSE,164,5.0,7.0,70,0.00,,,0.00,meteohub,2013-03-05 16:12:00,
2013-03-05 11:17:00,67.6,56.7,30.15,WSW,238,5.0,7.0,68,0.00,,,0.00,meteohub,2013-03-05 16:17:00,
2013-03-05 11:22:00,67.1,56.1,30.15,SSE,148,1.0,7.0,68,0.00,,,0.00,meteohub,2013-03-05 16:22:00,
2013-03-05 11:27:00,67.8,56.8,30.15,SE,138,6.0,7.0,68,0.00,,,0.00,meteohub,2013-03-05 16:27:00,
2013-03-05 11:32:00,68.2,56.8,30.15,SW,224,3.0,10.0,67,0.00,,,0.00,meteohub,2013-03-05 16:32:00,
2013-03-05 11:37:00,68.4,56.5,30.15,SW,229,5.0,10.0,66,0.00,,,0.00,meteohub,2013-03-05 16:37:00,
2013-03-05 11:42:00,66.7,55.8,30.15,West,266,6.0,10.0,68,0.00,,,0.00,meteohub,2013-03-05 16:42:00,
2013-03-05 11:47:00,66.9,56.5,30.15,West,263,3.0,14.0,69,0.00,,,0.00,meteohub,2013-03-05 16:47:00,
2013-03-05 11:52:00,67.3,55.9,30.15,SW,223,6.0,14.0,67,0.00,,,0.00,meteohub,2013-03-05 16:52:00,
2013-03-05 11:57:00,66.9,56.5,30.15,SW,233,3.0,14.0,69,0.00,,,0.00,meteohub,2013-03-05 16:57:00,
2013-03-05 12:02:00,66.7,56.3,30.15,WNW,285,2.0,11.0,69,0.00,,,0.00,meteohub,2013-03-05 17:02:00,
2013-03-05 12:07:00,66.6,56.1,30.15,SW,234,8.0,14.0,69,0.00,,,0.00,meteohub,2013-03-05 17:07:00,
2013-03-05 12:12:00,67.5,56.5,30.14,WSW,254,5.0,14.0,68,0.00,,,0.00,meteohub,2013-03-05 17:12:00,
2013-03-05 12:17:00,68.5,57.2,30.14,West,268,3.0,14.0,67,0.00,,,0.00,meteohub,2013-03-05 17:17:00,
2013-03-05 12:22:00,68.5,56.7,30.14,WSW,238,6.0,12.0,66,0.00,,,0.00,meteohub,2013-03-05 17:22:00,
2013-03-05 12:27:00,67.8,56.8,30.14,SW,225,7.0,12.0,68,0.00,,,0.00,meteohub,2013-03-05 17:27:00,
2013-03-05 12:32:00,68.7,57.4,30.14,West,276,9.0,11.0,67,0.00,,,0.00,meteohub,2013-03-05 17:32:00,
2013-03-05 12:37:00,68.5,57.2,30.13,WNW,300,5.0,12.0,67,0.00,,,0.00,meteohub,2013-03-05 17:37:00,
2013-03-05 12:42:00,69.3,56.1,30.13,WSW,248,9.0,12.0,63,0.00,,,0.00,meteohub,2013-03-05 17:42:00,
2013-03-05 12:47:00,68.5,56.7,30.12,WSW,238,9.0,12.0,66,0.00,,,0.00,meteohub,2013-03-05 17:47:00,
2013-03-05 12:52:00,69.1,55.9,30.13,WSW,243,5.0,13.0,63,0.00,,,0.00,meteohub,2013-03-05 17:52:00,
2013-03-05 12:57:00,69.3,56.1,30.12,SSW,193,6.0,13.0,63,0.00,,,0.00,meteohub,2013-03-05 17:57:00,
2013-03-05 13:02:00,69.3,56.1,30.12,WNW,282,8.0,13.0,63,0.00,,,0.00,meteohub,2013-03-05 18:02:00,
2013-03-05 13:07:00,70.0,56.3,30.11,SW,228,8.0,14.0,62,0.00,,,0.00,meteohub,2013-03-05 18:07:00,
2013-03-05 13:12:00,70.0,56.3,30.11,WSW,252,3.0,14.0,62,0.00,,,0.00,meteohub,2013-03-05 18:12:00,
2013-03-05 13:17:00,70.0,55.4,30.11,WSW,247,5.0,11.0,60,0.00,,,0.00,meteohub,2013-03-05 18:17:00,
2013-03-05 13:22:00,70.3,56.7,30.10,SW,223,11.0,13.0,62,0.00,,,0.00,meteohub,2013-03-05 18:22:00,
2013-03-05 13:27:00,70.5,56.5,30.10,West,277,6.0,13.0,61,0.00,,,0.00,meteohub,2013-03-05 18:27:00,
2013-03-05 13:32:00,70.3,56.7,30.10,SW,215,4.0,13.0,62,0.00,,,0.00,meteohub,2013-03-05 18:32:00,
2013-03-05 13:37:00,70.0,55.4,30.10,SW,215,4.0,14.0,60,0.00,,,0.00,meteohub,2013-03-05 18:37:00,
2013-03-05 13:42:00,70.5,55.9,30.09,SSW,201,3.0,14.0,60,0.00,,,0.00,meteohub,2013-03-05 18:42:00,
2013-03-05 13:47:00,70.9,56.8,30.10,SW,236,4.0,14.0,61,0.00,,,0.00,meteohub,2013-03-05 18:47:00,
2013-03-05 13:52:00,71.2,56.7,30.09,SSW,211,2.0,11.0,60,0.00,,,0.00,meteohub,2013-03-05 18:52:00,
2013-03-05 13:57:00,71.6,56.5,30.09,SSE,155,6.0,15.0,59,0.00,,,0.00,meteohub,2013-03-05 18:57:00,
2013-03-05 14:02:00,72.1,56.5,30.09,West,263,6.0,15.0,58,0.00,,,0.00,meteohub,2013-03-05 19:02:00,
2013-03-05 14:07:00,71.8,56.1,30.09,WSW,252,5.0,11.0,58,0.00,,,0.00,meteohub,2013-03-05 19:07:00,
2013-03-05 14:12:00,71.2,55.8,30.09,SW,221,9.0,10.0,58,0.00,,,0.00,meteohub,2013-03-05 19:12:00,
2013-03-05 14:17:00,71.1,54.1,30.09,West,262,4.0,13.0,55,0.00,,,0.00,meteohub,2013-03-05 19:17:00,
2013-03-05 14:22:00,71.2,55.2,30.09,West,276,6.0,15.0,57,0.00,,,0.00,meteohub,2013-03-05 19:22:00,
2013-03-05 14:27:00,71.4,54.5,30.09,West,262,4.0,15.0,55,0.00,,,0.00,meteohub,2013-03-05 19:27:00,
2013-03-05 14:32:00,71.2,53.8,30.09,WSW,251,6.0,14.0,54,0.00,,,0.00,meteohub,2013-03-05 19:32:00,
2013-03-05 14:37:00,71.4,54.5,30.09,West,280,3.0,14.0,55,0.00,,,0.00,meteohub,2013-03-05 19:37:00,
2013-03-05 14:42:00,70.3,54.3,30.09,SSW,198,3.0,14.0,57,0.00,,,0.00,meteohub,2013-03-05 19:42:00,
2013-03-05 14:47:00,70.9,54.9,30.09,NNW,338,3.0,14.0,57,0.00,,,0.00,meteohub,2013-03-05 19:47:00,
2013-03-05 14:52:00,71.2,53.8,30.09,WSW,248,7.0,14.0,54,0.00,,,0.00,meteohub,2013-03-05 19:52:00,
2013-03-05 14:57:00,71.1,53.6,30.09,West,263,10.0,11.0,54,0.00,,,0.00,meteohub,2013-03-05 19:57:00,
2013-03-05 15:02:00,71.1,54.1,30.09,West,270,2.0,12.0,55,0.00,,,0.00,meteohub,2013-03-05 20:02:00,
2013-03-05 15:07:00,72.0,54.3,30.09,SW,223,6.0,12.0,54,0.00,,,0.00,meteohub,2013-03-05 20:07:00,
2013-03-05 15:12:00,72.5,54.3,30.09,WSW,251,6.0,12.0,53,0.00,,,0.00,meteohub,2013-03-05 20:12:00,
2013-03-05 15:17:00,73.0,54.3,30.09,West,265,1.0,12.0,52,0.00,,,0.00,meteohub,2013-03-05 20:17:00,
2013-03-05 15:22:00,72.7,52.9,30.09,WSW,246,6.0,12.0,50,0.00,,,0.00,meteohub,2013-03-05 20:22:00,
2013-03-05 15:27:00,72.0,54.0,30.09,WNW,300,6.0,14.0,53,0.00,,,0.00,meteohub,2013-03-05 20:27:00,
2013-03-05 15:32:00,71.1,54.5,30.09,WSW,247,4.0,14.0,56,0.00,,,0.00,meteohub,2013-03-05 20:32:00,
2013-03-05 15:37:00,70.9,54.9,30.09,WNW,283,3.0,14.0,57,0.00,,,0.00,meteohub,2013-03-05 20:37:00,
2013-03-05 15:43:00,71.2,54.7,30.09,West,259,6.0,15.0,56,0.00,,,0.00,meteohub,2013-03-05 20:43:00,
2013-03-05 15:49:00,70.5,54.1,30.09,WSW,254,7.0,14.0,56,0.00,,,0.00,meteohub,2013-03-05 20:49:00,
2013-03-05 15:55:00,71.2,54.7,30.09,WNW,287,6.0,13.0,56,0.00,,,0.00,meteohub,2013-03-05 20:55:00,
2013-03-05 16:01:00,71.2,55.2,30.09,WSW,257,6.0,11.0,57,0.00,,,0.00,meteohub,2013-03-05 21:01:00,
2013-03-05 16:07:00,70.9,55.4,30.09,WSW,249,5.0,10.0,58,0.00,,,0.00,meteohub,2013-03-05 21:07:00,
2013-03-05 16:12:00,70.3,55.8,30.09,SSE,161,5.0,12.0,60,0.00,,,0.00,meteohub,2013-03-05 21:12:00,
2013-03-05 16:17:00,70.5,55.9,30.08,WSW,250,8.0,14.0,60,0.00,,,0.00,meteohub,2013-03-05 21:17:00,
2013-03-05 16:22:00,70.2,55.6,30.08,West,265,2.0,14.0,60,0.00,,,0.00,meteohub,2013-03-05 21:22:00,
2013-03-05 16:27:00,70.5,56.5,30.08,West,271,1.0,14.0,61,0.00,,,0.00,meteohub,2013-03-05 21:27:00,
2013-03-05 16:32:00,70.5,55.9,30.08,WNW,292,5.0,10.0,60,0.00,,,0.00,meteohub,2013-03-05 21:32:00,
2013-03-05 16:37:00,70.5,55.9,30.08,West,261,8.0,11.0,60,0.00,,,0.00,meteohub,2013-03-05 21:37:00,
2013-03-05 16:42:00,70.5,56.5,30.07,SW,214,4.0,11.0,61,0.00,,,0.00,meteohub,2013-03-05 21:42:00,
2013-03-05 16:47:00,70.2,56.5,30.08,WSW,253,5.0,12.0,62,0.00,,,0.00,meteohub,2013-03-05 21:47:00,
2013-03-05 16:52:00,70.2,56.5,30.08,SW,235,6.0,12.0,62,0.00,,,0.00,meteohub,2013-03-05 21:52:00,
2013-03-05 16:57:00,70.3,56.7,30.08,West,278,4.0,12.0,62,0.00,,,0.00,meteohub,2013-03-05 21:57:00,
2013-03-05 17:02:00,70.2,56.5,30.08,SSE,158,4.0,15.0,62,0.00,,,0.00,meteohub,2013-03-05 22:02:00,
2013-03-05 17:07:00,69.4,56.7,30.08,West,264,5.0,15.0,64,0.00,,,0.00,meteohub,2013-03-05 22:07:00,
2013-03-05 17:12:00,69.4,57.2,30.08,SW,224,4.0,15.0,65,0.00,,,0.00,meteohub,2013-03-05 22:12:00,
2013-03-05 17:17:00,69.4,56.7,30.08,SW,229,3.0,11.0,64,0.00,,,0.00,meteohub,2013-03-05 22:17:00,
2013-03-05 17:22:00,69.1,56.8,30.07,West,268,6.0,9.0,65,0.00,,,0.00,meteohub,2013-03-05 22:22:00,
2013-03-05 17:27:00,68.9,57.0,30.07,SW,221,5.0,11.0,66,0.00,,,0.00,meteohub,2013-03-05 22:27:00,
2013-03-05 17:32:00,68.9,57.0,30.07,West,264,3.0,11.0,66,0.00,,,0.00,meteohub,2013-03-05 22:32:00,
2013-03-05 17:37:00,68.5,56.7,30.07,WSW,252,2.0,11.0,66,0.00,,,0.00,meteohub,2013-03-05 22:37:00,
2013-03-05 17:42:00,68.5,57.2,30.07,SSW,213,5.0,10.0,67,0.00,,,0.00,meteohub,2013-03-05 22:42:00,
2013-03-05 17:47:00,68.2,57.2,30.07,SW,234,6.0,10.0,68,0.00,,,0.00,meteohub,2013-03-05 22:47:00,
2013-03-05 17:53:00,67.8,57.2,30.07,West,263,3.0,9.0,69,0.00,,,0.00,meteohub,2013-03-05 22:53:00,
2013-03-05 17:59:00,67.3,57.2,30.07,West,267,6.0,9.0,70,0.00,,,0.00,meteohub,2013-03-05 22:59:00,
2013-03-05 18:05:00,66.7,57.0,30.06,SW,215,4.0,9.0,71,0.00,,,0.00,meteohub,2013-03-05 23:05:00,
2013-03-05 18:11:00,66.4,57.0,30.06,SW,232,2.0,10.0,72,0.00,,,0.00,meteohub,2013-03-05 23:11:00,
2013-03-05 18:17:00,66.2,57.2,30.06,WSW,240,3.0,10.0,73,0.00,,,0.00,meteohub,2013-03-05 23:17:00,
2013-03-05 18:22:00,65.8,57.4,30.06,WSW,257,6.0,10.0,74,0.00,,,0.00,meteohub,2013-03-05 23:22:00,
2013-03-05 18:27:00,65.7,57.2,30.06,SSW,213,4.0,9.0,74,0.00,,,0.00,meteohub,2013-03-05 23:27:00,
2013-03-05 18:32:00,65.5,57.4,30.06,WSW,246,3.0,9.0,75,0.00,,,0.00,meteohub,2013-03-05 23:32:00,
2013-03-05 18:38:00,65.1,57.4,30.06,SW,225,3.0,9.0,76,0.00,,,0.00,meteohub,2013-03-05 23:38:00,
2013-03-05 18:44:00,64.9,57.6,30.05,SW,233,2.0,8.0,77,0.00,,,0.00,meteohub,2013-03-05 23:44:00,
2013-03-05 18:50:00,64.8,57.4,30.05,SW,223,4.0,7.0,77,0.00,,,0.00,meteohub,2013-03-05 23:50:00,
2013-03-05 18:56:00,64.6,57.9,30.05,WSW,239,3.0,7.0,79,0.00,,,0.00,meteohub,2013-03-05 23:56:00,
2013-03-05 19:02:00,64.4,57.7,30.05,SW,227,2.0,7.0,79,0.00,,,0.00,meteohub,2013-03-06 00:02:00,
2013-03-05 19:07:00,64.2,57.9,30.05,South,172,5.0,6.0,80,0.00,,,0.00,meteohub,2013-03-06 00:07:00,
2013-03-05 19:12:00,64.0,58.1,30.05,SW,223,3.0,8.0,81,0.00,,,0.00,meteohub,2013-03-06 00:12:00,
2013-03-05 19:17:00,63.9,57.9,30.05,WSW,254,3.0,8.0,81,0.00,,,0.00,meteohub,2013-03-06 00:17:00,
2013-03-05 19:22:00,63.7,57.7,30.05,SW,235,2.0,8.0,81,0.00,,,0.00,meteohub,2013-03-06 00:22:00,
2013-03-05 19:27:00,63.7,58.1,30.05,West,269,0.0,5.0,82,0.00,,,0.00,meteohub,2013-03-06 00:27:00,
2013-03-05 19:32:00,63.5,57.9,30.05,SSW,212,4.0,5.0,82,0.00,,,0.00,meteohub,2013-03-06 00:32:00,
2013-03-05 19:37:00,63.3,58.1,30.05,West,271,2.0,5.0,83,0.00,,,0.00,meteohub,2013-03-06 00:37:00,
2013-03-05 19:42:00,63.3,58.1,30.05,WSW,251,2.0,5.0,83,0.00,,,0.00,meteohub,2013-03-06 00:42:00,
2013-03-05 19:47:00,63.3,58.5,30.05,SSW,203,2.0,6.0,84,0.00,,,0.00,meteohub,2013-03-06 00:47:00,
2013-03-05 19:52:00,63.3,58.5,30.05,WSW,238,2.0,9.0,84,0.00,,,0.00,meteohub,2013-03-06 00:52:00,
2013-03-05 19:57:00,63.3,58.5,30.04,SSW,209,2.0,9.0,84,0.00,,,0.00,meteohub,2013-03-06 00:57:00,
2013-03-05 20:02:00,63.3,58.8,30.04,WSW,242,2.0,9.0,85,0.00,,,0.00,meteohub,2013-03-06 01:02:00,
2013-03-05 20:07:00,63.3,58.8,30.04,WSW,252,3.0,8.0,85,0.00,,,0.00,meteohub,2013-03-06 01:07:00,
2013-03-05 20:12:00,63.3,58.8,30.04,SSW,201,5.0,8.0,85,0.00,,,0.00,meteohub,2013-03-06 01:12:00,
2013-03-05 20:17:00,63.3,59.0,30.04,SSW,206,2.0,7.0,86,0.00,,,0.00,meteohub,2013-03-06 01:17:00,
2013-03-05 20:22:00,63.1,58.8,30.04,SW,221,3.0,7.0,86,0.00,,,0.00,meteohub,2013-03-06 01:22:00,
2013-03-05 20:27:00,63.1,58.8,30.04,WSW,243,3.0,7.0,86,0.00,,,0.00,meteohub,2013-03-06 01:27:00,
2013-03-05 20:32:00,63.1,59.2,30.03,SSW,202,5.0,7.0,87,0.00,,,0.00,meteohub,2013-03-06 01:32:00,
2013-03-05 20:37:00,63.1,59.2,30.03,West,277,2.0,8.0,87,0.00,,,0.00,meteohub,2013-03-06 01:37:00,
2013-03-05 20:42:00,63.1,59.2,30.03,SSW,196,1.0,9.0,87,0.00,,,0.00,meteohub,2013-03-06 01:42:00,
2013-03-05 20:47:00,63.1,59.5,30.03,SW,223,6.0,9.0,88,0.00,,,0.00,meteohub,2013-03-06 01:47:00,
2013-03-05 20:52:00,63.1,59.5,30.04,WSW,241,4.0,9.0,88,0.00,,,0.00,meteohub,2013-03-06 01:52:00,
2013-03-05 20:57:00,63.1,59.5,30.03,SSW,205,6.0,9.0,88,0.00,,,0.00,meteohub,2013-03-06 01:57:00,
2013-03-05 21:02:00,63.3,59.7,30.03,South,189,2.0,9.0,88,0.00,,,0.00,meteohub,2013-03-06 02:02:00,
2013-03-05 21:07:00,63.3,59.7,30.03,SSW,213,4.0,9.0,88,0.00,,,0.00,meteohub,2013-03-06 02:07:00,
2013-03-05 21:12:00,63.5,59.9,30.03,NNE,13,3.0,8.0,88,0.00,,,0.00,meteohub,2013-03-06 02:12:00,
2013-03-05 21:17:00,63.5,59.9,30.03,SSW,205,4.0,8.0,88,0.00,,,0.00,meteohub,2013-03-06 02:17:00,
2013-03-05 21:22:00,63.7,60.1,30.03,South,170,4.0,8.0,88,0.00,,,0.00,meteohub,2013-03-06 02:22:00,
2013-03-05 21:27:00,63.7,60.1,30.03,SW,229,4.0,11.0,88,0.00,,,0.00,meteohub,2013-03-06 02:27:00,
2013-03-05 21:32:00,63.7,60.4,30.03,SW,215,4.0,11.0,89,0.00,,,0.00,meteohub,2013-03-06 02:32:00,
2013-03-05 21:37:00,63.7,60.4,30.03,SSW,213,5.0,11.0,89,0.00,,,0.00,meteohub,2013-03-06 02:37:00,
2013-03-05 21:42:00,63.7,60.4,30.03,SW,228,3.0,9.0,89,0.00,,,0.00,meteohub,2013-03-06 02:42:00,
2013-03-05 21:47:00,63.7,60.4,30.03,WSW,254,5.0,9.0,89,0.00,,,0.00,meteohub,2013-03-06 02:47:00,
2013-03-05 21:52:00,63.9,60.6,30.04,SSW,207,4.0,9.0,89,0.00,,,0.00,meteohub,2013-03-06 02:52:00,
2013-03-05 21:57:00,63.9,60.6,30.03,WSW,246,2.0,10.0,89,0.00,,,0.00,meteohub,2013-03-06 02:57:00,
2013-03-05 22:02:00,63.9,60.6,30.03,SW,227,4.0,10.0,89,0.00,,,0.00,meteohub,2013-03-06 03:02:00,
2013-03-05 22:07:00,63.9,60.6,30.03,SW,216,4.0,11.0,89,0.00,,,0.00,meteohub,2013-03-06 03:07:00,
2013-03-05 22:12:00,63.9,60.6,30.04,West,272,3.0,11.0,89,0.00,,,0.00,meteohub,2013-03-06 03:12:00,
2013-03-05 22:17:00,64.0,60.8,30.04,WSW,240,7.0,11.0,89,0.00,,,0.00,meteohub,2013-03-06 03:17:00,
2013-03-05 22:22:00,64.2,61.0,30.04,SW,217,7.0,10.0,89,0.00,,,0.00,meteohub,2013-03-06 03:22:00,
2013-03-05 22:27:00,64.4,61.2,30.04,WSW,258,1.0,10.0,89,0.00,,,0.00,meteohub,2013-03-06 03:27:00,
2013-03-05 22:32:00,64.6,61.0,30.04,WSW,254,5.0,10.0,88,0.00,,,0.00,meteohub,2013-03-06 03:32:00,
2013-03-05 22:37:00,64.6,61.0,30.03,SW,214,4.0,9.0,88,0.00,,,0.00,meteohub,2013-03-06 03:37:00,
2013-03-05 22:42:00,64.8,61.2,30.03,WSW,240,4.0,12.0,88,0.00,,,0.00,meteohub,2013-03-06 03:42:00,
2013-03-05 22:47:00,64.8,61.2,30.04,WSW,257,1.0,12.0,88,0.00,,,0.00,meteohub,2013-03-06 03:47:00,
2013-03-05 22:52:00,64.9,61.0,30.03,WSW,257,1.0,12.0,87,0.00,,,0.00,meteohub,2013-03-06 03:52:00,
2013-03-05 22:57:00,64.9,61.0,30.03,SW,235,4.0,9.0,87,0.00,,,0.00,meteohub,2013-03-06 03:57:00,
2013-03-05 23:02:00,64.9,61.0,30.03,SSW,210,5.0,8.0,87,0.00,,,0.00,meteohub,2013-03-06 04:02:00,
2013-03-05 23:07:00,64.9,61.0,30.03,SW,227,6.0,10.0,87,0.00,,,0.00,meteohub,2013-03-06 04:07:00,
2013-03-05 23:12:00,64.9,61.0,30.03,SW,215,6.0,10.0,87,0.00,,,0.00,meteohub,2013-03-06 04:12:00,
2013-03-05 23:17:00,64.9,61.0,30.03,South,173,4.0,10.0,87,0.00,,,0.00,meteohub,2013-03-06 04:17:00,
2013-03-05 23:22:00,64.9,61.0,30.03,WSW,248,4.0,11.0,87,0.00,,,0.00,meteohub,2013-03-06 04:22:00,
2013-03-05 23:27:00,64.9,61.0,30.03,West,265,4.0,13.0,87,0.00,,,0.00,meteohub,2013-03-06 04:27:00,
2013-03-05 23:32:00,64.9,61.0,30.03,WSW,249,4.0,13.0,87,0.00,,,0.00,meteohub,2013-03-06 04:32:00,
2013-03-05 23:37:00,64.8,60.8,30.03,West,261,5.0,9.0,87,0.00,,,0.00,meteohub,2013-03-06 04:37:00,
2013-03-05 23:42:00,64.9,61.0,30.03,West,261,3.0,10.0,87,0.00,,,0.00,meteohub,2013-03-06 04:42:00,
2013-03-05 23:47:00,64.9,61.0,30.03,West,267,2.0,10.0,87,0.00,,,0.00,meteohub,2013-03-06 04:47:00,
2013-03-05 23:52:00,64.8,60.8,30.03,West,275,3.0,11.0,87,0.00,,,0.00,meteohub,2013-03-06 04:52:00,
2013-03-05 23:57:00,64.8,60.8,30.02,West,272,5.0,11.0,87,0.00,,,0.00,meteohub,2013-03-06 04:57:00,